Location: Владивосток
(43.1151°N, 131.8856°E)
Time: 15:30:15
(UTC+10:00)

deb Kosmos-1275 - Visible Passes

Search period start: 16 July 2024 00:00
Search period end: 26 July 2024 00:00
Orbit: 774 x 780 km, 82.9° (Epoch: 15 July)

Date Brightness Start Highest point End Pass type
(mag) Time Alt. Az. Time Alt. Az. Time Alt. Az.
16 Jul ? 02:20:11 10° NNE 02:24:23 24° ENE 02:28:14 11° ESE visible
16 Jul ? 04:00:46 10° NNW 04:05:42 42° W 04:08:39 22° SSW visible
17 Jul ? 01:47:25 10° NE 01:50:07 14° ENE 01:52:49 10° E visible
17 Jul ? 03:26:39 10° N 03:31:54 76° W 03:34:31 30° S visible
18 Jul ? 02:52:46 10° N 02:57:58 62° E 03:00:24 31° SSE visible
18 Jul ? 04:35:26 10° NW 04:38:31 16° W 04:40:50 12° WSW visible
19 Jul ? 02:19:06 10° N 02:23:54 36° ENE 02:26:19 24° ESE visible
19 Jul ? 04:00:30 10° NNW 04:04:53 28° W 04:06:44 22° WSW visible
20 Jul ? 01:45:45 10° NNE 01:49:42 21° ENE 01:52:12 15° ESE visible
20 Jul ? 03:26:05 10° NNW 03:31:07 48° W 03:32:38 37° SW visible
21 Jul ? 01:13:12 10° NE 01:15:20 12° ENE 01:17:27 10° E visible
21 Jul ? 02:51:57 10° N 02:57:13 85° W 02:58:33 52° S visible
22 Jul ? 02:18:02 10° N 02:23:11 55° E 02:24:28 43° SE visible
22 Jul ? 04:00:21 10° NW 04:03:49 18° W 04:04:54 17° W visible
23 Jul ? 01:44:21 10° NNE 01:49:01 31° ENE 01:50:23 27° ESE visible
23 Jul ? 03:25:30 10° NNW 03:30:05 31° W 03:30:49 30° WSW visible
24 Jul ? 01:11:03 10° NNE 01:14:42 19° ENE 01:16:18 16° E visible
24 Jul ? 02:51:06 10° NNW 02:56:13 55° W 02:56:44 53° WSW visible
25 Jul ? 00:39:01 10° NE 00:40:13 11° ENE 00:41:25 10° ENE visible
25 Jul ? 02:16:56 10° N 02:22:13 84° E 02:22:39 75° SSE visible
25 Jul ? 04:00:51 10° WNW 04:02:30 11° W 04:03:04 11° W visible
